| time (UTC) | temp F | wind direction | speed MPH | gust MPH | rain 1hr in | rain 24hr in | rain mn in | humidity % | barometer mb |
| 20260507141613 | 56 | 70 | 2.0 | 6.0 | 0.00 | 0.00 | 0.00 | 36 | 1013.3 |
| 20260507140054 | 55 | 32 | 2.0 | 7.0 | 0.00 | 0.00 | 0.00 | 36 | 1013.2 |
| 20260507134554 | 54 | 55 | 1.0 | 5.0 | 0.00 | 0.00 | 0.00 | 37 | 1013.1 |
| 20260507133048 | 52 | 63 | 1.0 | 4.0 | 0.00 | 0.00 | 0.00 | 37 | 1013.0 |
| 20260507131557 | 50 | 81 | 0.0 | 2.0 | 0.00 | 0.00 | 0.00 | 36 | 1012.9 |
| 20260507130045 | 48 | 22 | 0.0 | 0.0 | 0.00 | 0.00 | 0.00 | 36 | 1012.8 |
| 20260507124541 | 46 | 22 | 0.0 | 0.0 | 0.00 | 0.00 | 0.00 | 35 | 1012.8 |
| 20260507123042 | 45 | 22 | 0.0 | 0.0 | 0.00 | 0.00 | 0.00 | 35 | 1012.6 |
| 20260507121540 | 46 | 22 | 0.0 | 0.0 | 0.00 | 0.00 | 0.00 | 35 | 1012.6 |
| 20260507120031 | 49 | 22 | 0.0 | 0.0 | 0.00 | 0.00 | 0.00 | 35 | 1012.7 |
| 20260507114530 | 48 | 46 | 0.0 | 0.0 | 0.00 | 0.00 | 0.00 | 34 | 1012.6 |
| 20260507113027 | 48 | 46 | 0.0 | 0.0 | 0.00 | 0.00 | 0.00 | 34 | 1012.8 |
| 20260507111523 | 48 | 46 | 0.0 | 0.0 | 0.00 | 0.00 | 0.00 | 33 | 1012.9 |
| 20260507110021 | 49 | 46 | 0.0 | 0.0 | 0.00 | 0.00 | 0.00 | 33 | 1013.0 |
| 20260507104516 | 49 | 68 | 0.0 | 2.0 | 0.00 | 0.00 | 0.00 | 33 | 1012.9 |
| 20260507103014 | 49 | 51 | 0.0 | 0.0 | 0.00 | 0.00 | 0.00 | 32 | 1012.8 |
| 20260507101511 | 50 | 51 | 0.0 | 0.0 | 0.00 | 0.00 | 0.00 | 32 | 1012.7 |
| 20260507100008 | 50 | 51 | 0.0 | 0.0 | 0.00 | 0.00 | 0.00 | 31 | 1012.7 |
| 20260507094505 | 51 | 51 | 0.0 | 0.0 | 0.00 | 0.00 | 0.00 | 31 | 1012.7 |
| 20260507093003 | 50 | 51 | 0.0 | 0.0 | 0.00 | 0.00 | 0.00 | 30 | 1012.8 |
| 20260507091559 | 51 | 51 | 0.0 | 0.0 | 0.00 | 0.00 | 0.00 | 30 | 1012.9 |
| 20260507084555 | 53 | 46 | 0.0 | 7.0 | 0.00 | 0.00 | 0.00 | 29 | 1013.0 |
| 20260507083046 | 54 | 300 | 1.0 | 4.0 | 0.00 | 0.00 | 0.00 | 29 | 1012.8 |
| 20260507081552 | 55 | 283 | 2.0 | 6.0 | 0.00 | 0.00 | 0.00 | 29 | 1012.8 |
| 20260507080040 | 55 | 287 | 2.0 | 6.0 | 0.00 | 0.00 | 0.00 | 28 | 1012.8 |
| 20260507074538 | 56 | 288 | 2.0 | 6.0 | 0.00 | 0.00 | 0.00 | 28 | 1012.7 |
| 20260507073034 | 56 | 269 | 3.0 | 7.0 | 0.00 | 0.00 | 0.00 | 28 | 1012.8 |
| 20260507071535 | 57 | 287 | 3.0 | 9.0 | 0.00 | 0.00 | 0.00 | 28 | 1012.7 |
| 20260507070031 | 57 | 266 | 3.0 | 10.0 | 0.00 | 0.00 | 0.00 | 27 | 1012.7 |
| 20260507064535 | 57 | 260 | 3.0 | 9.0 | 0.00 | 0.00 | 0.00 | 27 | 1012.7 |
| 20260507063023 | 58 | 268 | 3.0 | 9.0 | 0.00 | 0.00 | 0.00 | 27 | 1012.6 |
| 20260507061521 | 58 | 236 | 4.0 | 8.0 | 0.00 | 0.00 | 0.00 | 27 | 1012.5 |
| 20260507060017 | 58 | 294 | 4.0 | 8.0 | 0.00 | 0.00 | 0.00 | 26 | 1012.5 |
| 20260507054516 | 58 | 286 | 4.0 | 8.0 | 0.00 | 0.00 | 0.00 | 26 | 1012.5 |
| 20260507053015 | 58 | 243 | 3.0 | 9.0 | 0.00 | 0.00 | 0.00 | 26 | 1012.5 |
| 20260507051512 | 58 | 258 | 4.0 | 10.0 | 0.00 | 0.00 | 0.00 | 25 | 1012.3 |
| 20260507050026 | 58 | 257 | 4.0 | 10.0 | 0.00 | 0.00 | 0.00 | 25 | 1012.4 |
| 20260507044508 | 59 | 245 | 5.0 | 9.0 | 0.00 | 0.00 | 0.00 | 25 | 1012.1 |
| 20260507043007 | 59 | 231 | 4.0 | 11.0 | 0.00 | 0.00 | 0.00 | 24 | 1012.1 |
| 20260507041510 | 59 | 221 | 4.0 | 12.0 | 0.00 | 0.00 | 0.00 | 24 | 1012.0 |
| 20260507040001 | 59 | 272 | 5.0 | 11.0 | 0.00 | 0.00 | 0.00 | 24 | 1011.7 |
| 20260507034559 | 59 | 250 | 5.0 | 13.0 | 0.00 | 0.00 | 0.00 | 23 | 1011.4 |
| 20260507033057 | 60 | 237 | 5.0 | 11.0 | 0.00 | 0.00 | 0.00 | 23 | 1011.5 |
| 20260507031556 | 60 | 246 | 5.0 | 12.0 | 0.00 | 0.00 | 0.00 | 22 | 1011.2 |
| 20260507030054 | 60 | 254 | 5.0 | 8.0 | 0.00 | 0.00 | 0.00 | 21 | 1011.0 |
| 20260507024550 | 61 | 240 | 4.0 | 9.0 | 0.00 | 0.00 | 0.00 | 21 | 1010.8 |
| 20260507023049 | 62 | 247 | 4.0 | 12.0 | 0.00 | 0.00 | 0.00 | 20 | 1010.6 |
| 20260507021547 | 63 | 259 | 4.0 | 9.0 | 0.00 | 0.00 | 0.00 | 20 | 1010.4 |
| 20260507020100 | 64 | 244 | 4.0 | 11.0 | 0.00 | 0.00 | 0.00 | 19 | 1010.3 |
| 20260507014547 | 66 | 228 | 4.0 | 13.0 | 0.00 | 0.00 | 0.00 | 19 | 1010.2 |
| 20260507013043 | 67 | 245 | 3.0 | 11.0 | 0.00 | 0.00 | 0.00 | 18 | 1010.2 |
| 20260507011542 | 67 | 266 | 5.0 | 10.0 | 0.00 | 0.00 | 0.00 | 18 | 1010.3 |
| 20260507010055 | 69 | 267 | 5.0 | 10.0 | 0.00 | 0.00 | 0.00 | 18 | 1010.2 |
| 20260507004537 | 69 | 212 | 5.0 | 13.0 | 0.00 | 0.00 | 0.00 | 17 | 1010.1 |
| 20260507003035 | 70 | 238 | 6.0 | 13.0 | 0.00 | 0.00 | 0.00 | 17 | 1009.9 |
| 20260507001534 | 72 | 185 | 5.0 | 11.0 | 0.00 | 0.00 | 0.00 | 17 | 1009.8 |
| 20260507000031 | 71 | 286 | 6.0 | 14.0 | 0.00 | 0.00 | 0.00 | 17 | 1009.7 |
| 20260506234531 | 72 | 272 | 4.0 | 8.0 | 0.00 | 0.00 | 0.00 | 17 | 1009.8 |
| 20260506233028 | 72 | 259 | 6.0 | 15.0 | 0.00 | 0.00 | 0.00 | 17 | 1009.7 |
| 20260506231526 | 73 | 217 | 4.0 | 14.0 | 0.00 | 0.00 | 0.00 | 18 | 1009.9 |
| 20260506230027 | 72 | 193 | 5.0 | 11.0 | 0.00 | 0.00 | 0.00 | 17 | 1009.8 |
| 20260506224521 | 72 | 274 | 5.0 | 13.0 | 0.00 | 0.00 | 0.00 | 17 | 1010.1 |
| 20260506223017 | 72 | 229 | 4.0 | 12.0 | 0.00 | 0.00 | 0.00 | 17 | 1010.3 |
| 20260506221514 | 72 | 237 | 5.0 | 12.0 | 0.00 | 0.00 | 0.00 | 18 | 1010.6 |
| 20260506220016 | 72 | 143 | 1.0 | 10.0 | 0.00 | 0.00 | 0.00 | 18 | 1010.7 |
| 20260506214509 | 73 | 282 | 4.0 | 10.0 | 0.00 | 0.00 | 0.00 | 18 | 1010.9 |
| 20260506213005 | 72 | 292 | 4.0 | 13.0 | 0.00 | 0.00 | 0.00 | 19 | 1011.0 |
| 20260506211601 | 72 | 267 | 4.0 | 9.0 | 0.00 | 0.00 | 0.00 | 19 | 1011.5 |
| 20260506210105 | 70 | 304 | 4.0 | 11.0 | 0.00 | 0.00 | 0.00 | 20 | 1011.5 |
| 20260506204604 | 70 | 288 | 1.0 | 4.0 | 0.00 | 0.00 | 0.00 | 20 | 1011.6 |
| 20260506203048 | 70 | 292 | 2.0 | 8.0 | 0.00 | 0.00 | 0.00 | 21 | 1011.8 |
| 20260506201548 | 69 | 73 | 3.0 | 7.0 | 0.00 | 0.00 | 0.00 | 21 | 1012.0 |
| 20260506200039 | 69 | 44 | 1.0 | 9.0 | 0.00 | 0.00 | 0.00 | 21 | 1012.1 |
| 20260506194533 | 68 | 353 | 2.0 | 8.0 | 0.00 | 0.00 | 0.00 | 22 | 1012.3 |
| 20260506193027 | 68 | 238 | 1.0 | 9.0 | 0.00 | 0.00 | 0.00 | 23 | 1012.5 |
| 20260506191523 | 66 | 32 | 5.0 | 12.0 | 0.00 | 0.00 | 0.00 | 23 | 1012.7 |
| 20260506190027 | 66 | 306 | 2.0 | 12.0 | 0.00 | 0.00 | 0.00 | 23 | 1012.9 |
| 20260506184521 | 66 | 323 | 3.0 | 9.0 | 0.00 | 0.00 | 0.00 | 24 | 1012.9 |
| 20260506183016 | 64 | 303 | 1.0 | 9.0 | 0.00 | 0.00 | 0.00 | 25 | 1012.9 |
| 20260506181514 | 64 | 327 | 4.0 | 10.0 | 0.00 | 0.00 | 0.00 | 26 | 1013.3 |
| 20260506180019 | 64 | 319 | 3.0 | 9.0 | 0.00 | 0.00 | 0.00 | 27 | 1013.2 |
| 20260506174516 | 64 | 251 | 3.0 | 10.0 | 0.00 | 0.00 | 0.00 | 28 | 1013.2 |
| 20260506173004 | 61 | 275 | 2.0 | 10.0 | 0.00 | 0.00 | 0.00 | 29 | 1013.3 |
| 20260506171501 | 61 | 312 | 2.0 | 7.0 | 0.00 | 0.00 | 0.00 | 30 | 1013.2 |
| 20260506170100 | 62 | 283 | 1.0 | 5.0 | 0.00 | 0.00 | 0.00 | 32 | 1013.3 |
| 20260506164553 | 60 | 262 | 2.0 | 7.0 | 0.00 | 0.00 | 0.00 | 33 | 1013.2 |
| 20260506163051 | 59 | 297 | 0.0 | 5.0 | 0.00 | 0.00 | 0.00 | 34 | 1013.1 |
| 20260506161549 | 59 | 268 | 2.0 | 5.0 | 0.00 | 0.00 | 0.00 | 36 | 1013.0 |
| 20260506160058 | 58 | 258 | 0.0 | 5.0 | 0.00 | 0.00 | 0.00 | 37 | 1013.2 |
| 20260506154541 | 57 | 328 | 1.0 | 6.0 | 0.00 | 0.00 | 0.00 | 38 | 1013.1 |
| 20260506153039 | 56 | 171 | 2.0 | 6.0 | 0.00 | 0.00 | 0.00 | 39 | 1013.0 |
| 20260506151541 | 56 | 259 | 1.0 | 5.0 | 0.00 | 0.00 | 0.00 | 41 | 1013.0 |
| 20260506150131 | 55 | 198 | 1.0 | 3.0 | 0.00 | 0.00 | 0.00 | 42 | 1013.2 |
| 20260506144528 | 54 | 160 | 1.0 | 4.0 | 0.00 | 0.00 | 0.00 | 42 | 1013.0 |
| 20260506143022 | 52 | 228 | 1.0 | 3.0 | 0.00 | 0.00 | 0.00 | 43 | 1012.9 |